TimeCDT,TemperatureF,Dew PointF,Humidity,Sea Level PressureIn,VisibilityMPH,Wind Direction,Wind SpeedMPH,Gust SpeedMPH,PrecipitationIn,Events,Conditions,WindDirDegrees,DateUTC
12:53 AM,62.1,57.0,84,29.68,10.0,South,8.1,-,N/A,,Clear,190,2013-05-31 05:53:00
1:53 AM,64.0,61.0,90,29.68,10.0,South,6.9,-,0.01,Rain,Light Rain,190,2013-05-31 06:53:00
2:13 AM,64.4,62.6,94,29.69,10.0,SSW,9.2,-,0.02,Rain-Thunderstorm,Light Rain,200,2013-05-31 07:13:00
2:28 AM,64.4,62.6,94,29.66,10.0,Calm,Calm,-,0.02,Rain,Light Rain,0,2013-05-31 07:28:00
2:53 AM,63.0,61.0,93,29.65,10.0,SE,3.5,-,0.03,,Partly Cloudy,130,2013-05-31 07:53:00
3:53 AM,63.0,61.0,93,29.63,10.0,SSE,4.6,-,N/A,,Partly Cloudy,150,2013-05-31 08:53:00
5:53 AM,66.0,62.1,87,29.61,10.0,South,11.5,-,N/A,,Clear,170,2013-05-31 10:53:00
6:53 AM,64.0,61.0,90,29.65,10.0,WNW,6.9,-,N/A,,Clear,290,2013-05-31 11:53:00
7:29 AM,64.4,62.6,94,29.69,10.0,WNW,5.8,-,N/A,,Mostly Cloudy,290,2013-05-31 12:29:00
7:53 AM,64.9,61.0,87,29.68,10.0,NW,6.9,-,N/A,,Overcast,310,2013-05-31 12:53:00
8:53 AM,66.0,60.1,81,29.69,10.0,SSE,5.8,-,N/A,,Overcast,160,2013-05-31 13:53:00
9:19 AM,66.2,60.8,83,29.71,10.0,South,4.6,-,N/A,,Overcast,190,2013-05-31 14:19:00
9:53 AM,69.1,62.1,78,29.70,10.0,SSW,3.5,-,N/A,,Overcast,200,2013-05-31 14:53:00
10:53 AM,71.1,63.0,75,29.72,10.0,SSE,4.6,-,0.00,,Mostly Cloudy,150,2013-05-31 15:53:00
11:53 AM,73.0,64.9,76,29.72,10.0,SE,10.4,-,N/A,,Scattered Clouds,140,2013-05-31 16:53:00
12:17 PM,73.4,64.4,73,29.74,10.0,SE,9.2,-,N/A,,Mostly Cloudy,130,2013-05-31 17:17:00
12:53 PM,73.9,63.0,68,29.71,10.0,SSE,11.5,16.1,N/A,,Mostly Cloudy,150,2013-05-31 17:53:00
1:05 PM,73.4,62.6,69,29.72,10.0,SSE,10.4,-,N/A,,Partly Cloudy,160,2013-05-31 18:05:00
1:53 PM,75.0,64.0,69,29.70,10.0,SSE,10.4,-,N/A,,Partly Cloudy,150,2013-05-31 18:53:00
2:53 PM,75.0,64.0,69,29.69,10.0,SE,9.2,17.3,N/A,,Scattered Clouds,140,2013-05-31 19:53:00
3:53 PM,78.1,64.0,62,29.67,10.0,SSW,9.2,-,N/A,,Partly Cloudy,200,2013-05-31 20:53:00
4:53 PM,80.1,53.1,39,29.66,10.0,WSW,10.4,-,N/A,,Clear,240,2013-05-31 21:53:00
5:53 PM,79.0,51.1,38,29.63,10.0,WSW,15.0,23.0,N/A,,Clear,240,2013-05-31 22:53:00
6:53 PM,75.9,52.0,43,29.65,10.0,WSW,10.4,-,N/A,,Clear,250,2013-05-31 23:53:00
7:53 PM,73.9,54.0,50,29.63,10.0,WSW,6.9,-,N/A,,Clear,250,2013-06-01 00:53:00
8:53 PM,69.1,55.0,61,29.65,10.0,SSE,10.4,-,N/A,,Clear,150,2013-06-01 01:53:00
9:53 PM,68.0,54.0,61,29.69,10.0,SSW,8.1,-,N/A,,Clear,210,2013-06-01 02:53:00
10:53 PM,66.9,57.0,70,29.70,10.0,SW,10.4,-,N/A,,Clear,220,2013-06-01 03:53:00
11:53 PM,66.0,54.0,65,29.70,10.0,West,9.2,-,N/A,,Clear,260,2013-06-01 04:53:00